[TLELIST] Archives

 

[TLELIST] Current TLEs

February 20th 2026 PDT

0 HST 1 20580U 90037B 26050.67088489 .00006837 00000-0 22680-3 0 9992 2 20580 28.4684 162.8909 0001061 272.1045 87.9429 15.29177707770552 0 ISS (ZARYA) 1 25544U 98067A 26051.21610692 .00009352 00000-0 18284-3 0 9996 2 25544 51.6324 158.7245 0008575 115.0388 245.1491 15.48153499553622 0 CXO 1 25867U 99040B 26053.02159877 .00001012 00000-0 00000-0 0 9999 2 25867 54.2829 120.1456 8026519 310.7149 0.6190 0.37809023 16897 ...Continue Reading

[TLELIST] Current TLEs

February 19th 2026 PDT

0 HST 1 20580U 90037B 26049.56140830 .00006839 00000-0 22697-3 0 9997 2 20580 28.4682 170.4553 0001160 251.3948 108.6521 15.29162466770382 0 ISS (ZARYA) 1 25544U 98067A 26049.79608032 .00009878 00000-0 18896-3 0 9993 2 25544 51.6323 165.7431 0010935 112.1599 248.0551 15.48691264553403 0 CXO 1 25867U 99040B 26047.73279316 .00001079 00000-0 00000-0 0 9994 2 25867 54.1474 120.3855 8029286 310.6948 0.6338 0.37796722 16869 ...Continue Reading

[TLELIST] Current TLEs

February 18th 2026 PDT

0 HST 1 20580U 90037B 26048.64771443 .00006944 00000-0 23067-3 0 9994 2 20580 28.4680 176.6860 0001126 244.7281 115.3198 15.29149182770247 0 ISS (ZARYA) 1 25544U 98067A 26049.21532624 .00009407 00000-0 18044-3 0 9996 2 25544 51.6322 168.6154 0010954 110.1068 250.1100 15.48678459553311 0 CXO 1 25867U 99040B 26047.73279316 .00001079 00000-0 00000-0 0 9994 2 25867 54.1474 120.3855 8029286 310.6948 0.6338 0.37796722 16869 ...Continue Reading

[TLELIST] Current TLEs

February 18th 2026 PDT

0 HST 1 20580U 90037B 26048.64771443 .00006944 00000-0 23067-3 0 9994 2 20580 28.4680 176.6860 0001126 244.7281 115.3198 15.29149182770247 0 ISS (ZARYA) 1 25544U 98067A 26049.21532624 .00009407 00000-0 18044-3 0 9996 2 25544 51.6322 168.6154 0010954 110.1068 250.1100 15.48678459553311 0 CXO 1 25867U 99040B 26047.73279316 .00001079 00000-0 00000-0 0 9994 2 25867 54.1474 120.3855 8029286 310.6948 0.6338 0.37796722 16869 ...Continue Reading

[TLELIST] Current TLEs

February 17th 2026 PDT

0 HST 1 20580U 90037B 26047.73401231 .00008194 00000-0 27362-3 0 9999 2 20580 28.4676 182.9159 0001169 231.7634 128.2856 15.29137032770108 0 ISS (ZARYA) 1 25544U 98067A 26048.18286298 .00009660 00000-0 18518-3 0 9991 2 25544 51.6319 173.7204 0011018 107.0393 253.1803 15.48657976553154 0 CXO 1 25867U 99040B 26047.73279316 .00001079 00000-0 00000-0 0 9994 2 25867 54.1474 120.3855 8029286 310.6948 0.6338 0.37796722 16869 ...Continue Reading

[TLELIST] Current TLEs

February 16th 2026 PDT

0 HST 1 20580U 90037B 26046.42870875 .00007835 00000-0 26144-3 0 9996 2 20580 28.4670 191.8156 0001372 214.5807 145.4700 15.29117043769900 0 ISS (ZARYA) 1 25544U 98067A 26047.21491617 .00010277 00000-0 19660-3 0 9992 2 25544 51.6319 178.5071 0011018 103.7643 256.4573 15.48638586553000 0 CXO 1 25867U 99040B 26047.73279316 .00001079 00000-0 00000-0 0 9994 2 25867 54.1474 120.3855 8029286 310.6948 0.6338 0.37796722 16869 ...Continue Reading

[TLELIST] Current TLEs

February 15th 2026 PDT

0 HST 1 20580U 90037B 26045.51498650 .00006492 00000-0 21547-3 0 9992 2 20580 28.4665 198.0454 0001452 202.8355 157.2176 15.29102662769764 0 ISS (ZARYA) 1 25544U 98067A 26046.18242609 .00011408 00000-0 21745-3 0 9996 2 25544 51.6317 183.6135 0011048 100.3471 259.8763 15.48615434552847 0 CXO 1 25867U 99040B 26047.73279316 .00001079 00000-0 00000-0 0 9994 2 25867 54.1474 120.3855 8029286 310.6948 0.6338 0.37796722 16869 ...Continue Reading

[TLELIST] Current TLEs

February 15th 2026 PDT

0 HST 1 20580U 90037B 26045.51498650 .00006492 00000-0 21547-3 0 9992 2 20580 28.4665 198.0454 0001452 202.8355 157.2176 15.29102662769764 0 ISS (ZARYA) 1 25544U 98067A 26046.18242609 .00011408 00000-0 21745-3 0 9996 2 25544 51.6317 183.6135 0011048 100.3471 259.8763 15.48615434552847 0 CXO 1 25867U 99040B 26047.73279316 .00001079 00000-0 00000-0 0 9994 2 25867 54.1474 120.3855 8029286 310.6948 0.6338 0.37796722 16869 ...Continue Reading

[TLELIST] Current TLEs

February 14th 2026 PDT

0 HST 1 20580U 90037B 26044.79705679 .00007675 00000-0 25614-3 0 9996 2 20580 28.4663 202.9405 0001477 193.7065 166.3491 15.29094567769659 0 ISS (ZARYA) 1 25544U 98067A 26045.21445063 .00008429 00000-0 16304-3 0 9992 2 25544 51.6315 188.3997 0011062 96.9141 263.3106 15.48593530552699 0 CXO 1 25867U 99040B 26047.73279316 .00001079 00000-0 00000-0 0 9994 2 25867 54.1474 120.3855 8029286 310.6948 0.6338 0.37796722 16869 ...Continue Reading

[TLELIST] Current TLEs

February 14th 2026 PDT

0 HST 1 20580U 90037B 26044.79705679 .00007675 00000-0 25614-3 0 9996 2 20580 28.4663 202.9405 0001477 193.7065 166.3491 15.29094567769659 0 ISS (ZARYA) 1 25544U 98067A 26045.21445063 .00008429 00000-0 16304-3 0 9992 2 25544 51.6315 188.3997 0011062 96.9141 263.3106 15.48593530552699 0 CXO 1 25867U 99040B 26047.73279316 .00001079 00000-0 00000-0 0 9994 2 25867 54.1474 120.3855 8029286 310.6948 0.6338 0.37796722 16869 ...Continue Reading
  • This mailing list is a public mailing list - anyone may join or leave, at any time.
  • This mailing list is announce-only.

International Space Station (ISS) / Hubble Space Telescope (HST) / Chandra X-Ray Observatory Orbital Data via EMAIL

Privacy Policy:

Private list